RH
69 68 68 68 69 70 73 74 75 75 73 71 68 65 67 72 73 74 78 83 83 70 43 25 26 30 30 29 27 28 32 36 32 22 16 15 19 23 26 27 27 27 27 26 26 25 26 25 25 26 26 26 25 25 24 24 24 24 25 26 28 28 28 28 28 29 29 29 29 29 29 28 26 22 18 16 15 11 6 2 1 1 2 2 3
64 66 68 69 68 69 69 67 69 71 70 68 66 67 70 74 76 76 79 84 88 90 80 56 36 29 29 30 29 27 28 33 35 30 22 15 15 19 23 26 28 29 28 28 29 28 28 28 28 28 29 28 27 27 25 25 25 25 25 26 27 28 28 28 28 28 28 29 29 29 29 28 27 24 21 17 15 16 13 8 4 2 1 2 1
61 64 69 70 66 64 66 66 67 68 68 68 68 71 75 77 79 78 80 86 88 90 92 87 72 54 40 32 28 27 27 27 30 31 28 21 16 17 20 23 26 29 31 31 31 32 32 31 32 33 33 33 31 29 27 26 26 25 26 26 27 28 28 28 28 28 28 28 28 28 29 29 27 25 23 20 16 14 15 15 11 6 3 2 2
64 65 67 70 65 61 66 69 67 69 71 70 70 74 79 81 82 81 82 83 84 84 88 91 89 82 70 55 41 31 28 27 26 27 28 25 20 16 17 22 26 28 32 35 35 35 37 36 35 36 38 37 35 33 30 28 27 27 27 27 27 28 28 28 28 28 28 27 26 26 27 29 28 26 23 22 19 16 14 15 16 13 8 4 3
67 67 65 66 66 63 67 70 68 70 75 74 74 79 83 84 85 83 82 82 80 81 85 87 87 88 87 81 69 53 38 30 26 25 24 24 22 19 18 21 26 28 29 33 37 39 42 44 42 41 43 43 40 37 34 30 29 28 28 28 28 28 29 28 28 28 28 27 26 26 27 29 29 27 24 23 22 19 16 14 15 16 14 10 6
67 69 66 67 69 68 67 70 70 69 73 76 78 85 86 85 83 80 79 80 79 80 83 84 86 89 90 88 85 78 62 43 31 27 24 22 20 23 32 34 31 34 37 34 34 40 46 49 49 49 49 48 44 40 37 33 30 30 29 29 29 29 29 28 28 28 28 28 27 26 27 29 29 28 25 23 22 21 19 16 15 15 16 15 12
66 67 64 66 71 71 67 70 74 72 72 75 75 79 81 79 77 76 75 77 77 78 81 83 85 88 88 87 86 86 82 69 53 42 36 30 23 23 40 54 46 41 48 47 38 38 46 51 53 55 54 51 48 42 38 34 32 31 30 30 30 30 29 29 29 28 28 28 28 28 28 29 30 29 27 24 22 22 21 18 16 16 16 16 15
66 66 65 66 69 71 70 71 74 73 73 75 71 69 73 76 76 74 73 76 78 76 77 82 86 87 88 90 89 87 87 84 76 64 53 47 39 29 33 50 55 49 53 60 55 47 51 55 55 56 56 54 52 46 40 35 33 32 31 31 31 30 29 29 29 29 28 28 28 28 28 30 30 30 29 26 23 21 21 20 18 16 16 16 16
63 62 64 67 70 74 75 74 75 74 75 78 74 71 75 77 75 75 74 75 76 74 74 79 85 89 91 91 91 93 91 89 86 80 69 58 52 45 37 43 54 53 52 62 70 64 59 60 58 55 55 55 55 52 47 40 35 33 33 32 31 31 30 29 29 30 29 29 28 28 29 30 31 31 31 28 25 22 21 21 19 17 16 16 16
62 61 62 64 69 76 77 76 78 77 75 74 73 72 75 76 74 75 74 74 74 73 73 75 80 87 92 91 88 91 95 93 88 87 81 65 56 54 49 49 51 50 52 61 70 73 66 61 59 56 53 52 53 54 52 48 42 37 34 33 32 31 30 30 29 29 29 29 29 29 29 30 31 32 31 29 27 24 22 21 20 18 17 16 16
63 62 62 61 65 72 74 74 76 77 76 76 75 75 73 73 73 73 75 77 78 77 75 74 76 81 88 90 86 85 89 91 86 86 85 71 62 63 61 60 56 53 61 67 67 69 67 61 56 56 54 51 50 51 51 51 50 45 39 35 33 33 31 30 30 29 30 30 30 29 30 30 31 31 32 31 29 27 25 22 20 19 17 16 16
54 59 62 63 63 66 68 69 69 67 67 66 70 75 78 78 76 75 76 76 75 75 73 73 76 80 84 88 89 89 88 88 83 81 83 77 73 74 70 66 61 55 62 71 70 68 65 58 53 51 51 50 48 48 48 50 52 52 48 42 37 35 33 32 31 31 31 31 31 31 31 31 32 32 33 33 31 30 27 23 20 17 16 16 15
33 41 49 54 55 55 57 59 61 59 52 46 47 53 63 71 75 74 71 68 67 67 69 73 79 85 87 88 92 93 91 89 85 80 81 84 83 82 75 67 63 59 58 64 70 71 66 62 60 56 51 47 44 43 43 45 48 50 50 49 46 43 40 37 36 35 34 33 33 32 33 33 33 34 33 34 33 31 27 21 17 15 15 15 15
18 21 26 32 36 38 40 43 47 48 42 35 33 33 34 39 48 53 51 50 51 55 66 75 81 85 87 89 91 91 91 89 85 81 82 87 86 87 88 80 73 73 70 66 66 64 62 65 71 72 65 56 47 42 40 39 40 41 42 43 44 45 44 43 42 41 39 38 36 35 35 35 34 34 33 33 32 30 27 22 18 15 14 14 15
16 15 16 18 20 23 25 27 29 31 29 26 26 25 23 19 21 26 27 28 31 43 60 71 77 83 84 87 89 89 91 90 85 83 84 87 85 85 91 91 84 83 83 80 74 66 64 70 78 82 78 70 60 52 47 44 42 41 40 41 42 44 44 44 44 44 43 41 40 38 36 35 35 35 35 35 36 36 33 28 23 18 16 15 15
14 14 15 14 15 16 16 17 17 18 18 18 18 18 17 15 15 15 15 16 20 30 44 54 70 83 85 85 86 86 88 88 85 85 86 87 85 79 79 84 86 87 88 88 85 80 79 82 86 86 81 75 74 71 66 60 57 53 49 46 46 46 45 45 45 46 47 45 43 42 41 42 41 39 39 41 41 40 38 35 29 24 20 17 15
13 14 14 14 14 13 13 13 13 13 13 13 14 14 14 14 14 14 13 14 16 20 30 46 70 85 86 84 83 84 87 88 85 86 88 86 84 80 75 76 83 89 88 86 85 84 85 87 87 84 77 70 70 74 74 70 66 63 62 59 55 53 51 49 49 50 52 52 51 50 49 47 44 42 44 46 46 44 41 37 30 24 20 16 13
10 12 13 14 14 14 14 13 12 12 12 13 13 13 13 13 13 13 13 14 14 18 28 46 66 77 79 79 79 80 85 88 87 86 87 85 82 82 80 79 84 88 84 81 80 79 81 84 82 77 71 65 57 53 56 63 67 70 76 77 73 71 67 61 59 58 57 56 57 57 53 49 48 50 50 48 47 44 40 36 31 25 20 16 13
7 9 12 13 14 14 14 14 14 13 12 13 13 13 13 12 13 12 13 15 17 24 34 45 57 68 76 77 76 77 79 85 89 89 88 85 81 78 78 79 82 84 86 86 83 76 75 76 79 78 70 60 54 50 49 55 64 71 74 73 74 77 77 75 71 69 68 64 63 61 56 53 54 58 60 56 50 46 44 42 39 35 29 24 22
7 8 9 10 13 14 15 15 15 15 14 13 13 13 13 12 12 12 11 13 15 24 36 47 57 70 77 75 73 76 80 85 89 89 88 86 81 77 76 76 79 84 89 93 90 84 82 81 84 89 81 68 66 68 67 65 67 74 76 76 80 81 79 80 76 72 75 72 68 67 61 59 61 61 62 66 65 61 62 62 58 54 48 42 41
8 8 8 9 10 12 15 16 16 16 16 16 15 14 14 13 13 12 11 11 12 15 24 36 49 61 68 71 74 77 80 83 87 89 89 86 83 81 81 80 81 85 87 89 90 88 87 85 84 86 85 82 79 77 80 81 77 79 81 82 87 84 79 85 82 76 76 71 67 70 69 67 66 64 63 71 75 72 75 81 76 69 65 61 60
9 9 9 8 9 10 13 15 17 18 17 17 18 17 17 16 15 14 13 12 11 10 12 17 26 36 46 56 62 63 65 71 79 83 81 79 81 86 90 89 88 89 89 89 90 88 88 88 85 84 84 87 88 84 85 88 87 86 85 85 87 82 80 88 88 82 80 76 75 78 77 75 74 74 72 73 74 72 75 79 78 77 79 77 74
14 12 10 9 9 9 10 12 13 15 17 18 18 18 18 18 17 17 16 14 13 12 11 10 12 16 21 27 30 31 37 48 60 70 75 80 86 91 94 93 91 91 92 92 93 91 88 86 84 86 88 89 90 90 89 90 91 90 89 89 89 85 86 91 88 84 81 81 86 86 81 81 83 84 81 75 72 71 72 72 72 75 77 79 82
19 18 16 13 11 9 9 10 11 12 13 15 16 17 17 18 18 18 18 18 17 15 14 13 12 12 11 12 11 11 14 21 31 44 54 61 68 79 90 93 92 92 91 90 91 91 89 85 83 85 87 87 87 88 88 88 89 89 87 86 86 85 87 88 86 84 81 78 83 83 80 82 84 83 82 79 75 75 76 77 77 74 73 81 85
21 21 21 19 16 14 12 10 10 10 11 11 13 14 15 15 16 16 17 17 18 18 17 17 16 16 15 14 13 11 10 9 12 16 21 23 25 40 63 75 81 88 89 88 89 90 88 85 82 82 84 85 84 82 82 80 79 79 78 74 72 74 80 84 84 85 84 81 81 80 81 82 82 81 79 76 73 73 75 79 80 78 80 85 86
24 23 24 22 20 20 18 15 13 11 11 11 11 11 11 12 12 13 14 14 15 15 16 16 16 17 17 17 17 16 15 12 10 9 9 9 8 13 26 37 45 56 65 75 84 86 87 88 87 85 80 71 61 54 50 47 44 46 47 46 47 56 73 87 91 90 88 86 85 85 84 82 80 80 79 75 73 71 72 76 78 79 82 81 79
33 31 30 27 24 22 22 21 19 16 14 12 12 12 11 11 11 11 11 11 12 12 12 13 13 14 14 16 17 17 18 17 17 16 14 14 14 13 14 15 18 22 26 37 51 61 68 72 69 60 48 36 29 28 26 24 23 23 24 24 28 44 66 83 93 97 95 92 89 86 84 83 79 78 78 77 76 74 75 78 77 76 76 67 57
39 38 38 37 33 30 28 27 26 24 21 18 15 14 13 13 12 12 12 11 12 12 11 11 11 11 12 12 13 14 15 16 17 18 19 19 19 19 19 18 17 17 15 16 21 26 30 33 30 26 23 23 26 29 30 31 33 32 30 28 29 40 56 68 75 79 82 87 90 89 87 84 78 72 72 74 75 73 73 73 70 63 57 46 32
43 42 43 43 42 41 39 36 34 32 31 29 26 22 18 16 14 13 13 13 13 13 13 14 13 12 12 12 12 12 12 13 13 14 14 15 16 17 18 19 18 19 19 18 19 19 19 19 20 20 23 27 30 30 30 31 33 34 36 36 34 35 40 44 43 40 42 50 59 65 67 64 57 52 53 56 56 53 50 52 54 51 46 39 28
50 49 50 50 48 48 47 45 43 40 38 37 37 35 32 29 24 20 18 16 15 14 14 15 15 15 14 13 13 13 13 13 13 13 13 13 13 13 14 15 16 16 16 17 18 19 19 19 19 19 19 20 21 20 19 18 18 20 23 25 25 25 24 23 22 19 18 20 24 27 29 29 27 27 28 29 28 25 23 25 30 33 34 34 29
59 59 61 59 55 52 51 51 49 46 45 43 42 42 41 42 40 36 34 32 29 27 24 22 23 25 24 23 23 23 22 21 18 16 15 14 14 13 13 13 13 14 14 14 14 15 16 16 16 15 13 12 12 11 11 10 11 12 12 13 13 14 13 12 12 11 11 11 12 12 12 12 12 12 12 12 12 12 12 12 13 15 16 17 19
69 70 73 70 64 61 62 63 60 57 57 55 52 48 44 44 46 47 47 46 46 45 43 40 39 40 40 40 41 42 42 40 36 31 27 24 21 18 16 15 14 14 13 13 13 13 14 14 14 14 12 11 11 12 12 12 11 11 11 11 11 10 10 10 10 10 10 10 9 9 9 9 8 8 8 8 7 7 7 7 7 8 8 8 8
79 80 83 81 78 77 77 78 76 74 75 74 72 66 56 47 44 45 47 49 51 51 52 51 51 51 51 50 51 52 51 51 50 48 45 42 38 33 29 26 22 19 16 15 14 14 14 13 13 13 13 13 13 13 13 12 12 12 11 11 11 11 10 10 9 9 8 9 9 9 9 9 9 9 8 8 8 7 6 6 5 6 6 6 7
83 85 86 86 87 88 88 86 82 82 83 82 82 81 74 64 54 48 46 46 47 49 50 52 52 53 54 54 57 60 61 60 58 56 53 51 47 45 44 41 38 35 31 29 26 23 22 21 19 19 20 20 20 21 23 23 23 23 22 22 21 20 19 17 15 14 12 10 8 8 7 8 8 8 8 8 8 8 7 6 6 6 5 5 5
85 87 88 90 91 91 90 89 88 88 88 87 86 85 83 80 73 63 55 50 48 46 47 49 50 53 55 58 62 68 71 70 66 63 60 56 50 46 44 42 41 42 43 44 44 42 41 40 37 36 38 39 38 38 39 39 39 39 40 40 39 37 36 34 31 29 26 22 18 15 12 9 8 7 7 7 7 8 7 7 7 6 6 6 5
88 88 86 84 85 86 87 88 89 89 90 90 89 87 84 83 82 77 71 66 62 55 49 47 49 55 62 68 71 73 73 70 66 64 62 60 57 53 49 45 40 37 38 39 42 44 46 48 47 43 41 42 40 38 38 39 38 38 38 39 40 41 41 41 41 41 39 37 33 30 25 21 18 14 11 9 7 7 7 7 7 6 6 5 5
91 90 87 80 78 82 86 88 87 86 87 86 86 87 87 84 81 79 77 76 75 70 60 51 50 59 69 74 76 79 79 76 71 66 63 61 59 57 55 51 45 38 34 33 34 35 37 40 42 41 39 39 39 36 34 33 33 30 28 27 26 26 28 30 32 34 36 37 37 36 33 31 29 26 23 19 15 12 9 7 6 6 6 6 6
89 88 88 85 81 81 84 86 86 85 85 86 87 89 87 83 78 74 74 75 76 78 72 62 57 63 72 76 76 80 83 84 83 78 74 69 63 59 56 52 47 41 38 37 37 38 38 38 40 42 42 43 43 42 39 35 32 29 26 23 19 17 15 16 17 19 20 23 26 28 30 31 31 30 29 27 25 22 19 15 12 9 7 6 6
85 85 87 88 86 84 83 87 90 89 86 85 86 85 81 77 70 63 64 70 75 79 79 75 70 68 73 77 76 76 79 83 84 82 78 73 67 63 59 53 50 48 48 49 48 46 46 45 45 45 46 45 44 43 40 35 32 28 25 22 18 14 12 10 10 10 10 12 13 16 18 21 23 26 28 28 28 26 24 23 21 18 15 12 9
84 83 84 88 89 86 83 84 83 78 76 76 76 73 70 68 59 47 46 56 69 79 80 77 73 67 68 73 75 73 73 75 75 73 72 71 69 66 62 58 57 57 58 60 61 60 57 53 49 44 42 42 39 37 34 31 28 25 22 19 15 11 10 8 7 7 8 8 8 9 11 12 14 17 21 25 27 26 25 24 23 23 23 21 19
79 76 76 80 82 77 71 68 61 53 54 61 65 65 62 60 54 45 42 47 60 76 82 79 72 64 62 68 73 71 66 62 59 57 59 64 67 68 66 62 58 57 57 58 62 69 72 67 61 54 49 44 39 36 33 29 25 22 20 16 12 9 8 7 8 8 7 7 6 7 8 9 10 11 13 17 20 22 24 24 24 23 23 23 23
52 50 50 54 57 53 47 45 42 36 38 44 49 50 47 46 46 44 44 45 49 58 67 70 70 67 63 66 73 73 66 57 50 48 52 58 61 62 61 60 56 52 49 47 49 57 65 66 65 60 55 51 47 41 34 29 25 22 19 15 10 8 7 7 8 9 9 9 8 8 9 10 9 9 11 13 14 16 17 20 23 24 24 24 23
37 37 36 37 38 37 33 32 32 31 31 32 34 36 36 36 37 36 38 41 43 44 46 49 54 61 64 68 72 70 62 51 43 44 54 61 62 61 60 63 63 60 55 50 46 46 48 51 56 56 51 48 47 42 34 27 22 19 16 13 9 8 8 7 8 9 10 11 8 7 10 12 12 11 12 13 14 14 13 13 15 18 20 22 22
36 36 35 34 32 31 30 30 30 29 28 28 28 29 30 31 32 31 31 33 36 39 41 41 43 50 58 62 63 60 57 51 43 48 63 73 76 76 72 69 66 60 52 45 40 38 35 35 41 46 44 38 35 32 26 21 18 15 14 12 10 9 9 9 8 8 10 11 10 8 8 10 12 11 12 15 16 15 15 15 15 14 14 15 15
32 30 29 29 28 27 26 26 26 25 24 25 24 24 24 24 25 26 27 28 30 31 32 32 33 38 46 52 53 51 51 49 49 60 80 88 86 84 81 77 71 62 56 53 47 37 25 20 24 31 31 28 24 22 18 15 13 13 12 12 11 10 9 9 8 8 8 9 9 8 7 9 11 9 9 12 14 13 14 16 17 17 16 15 14
28 27 27 26 25 24 23 22 20 19 18 18 18 18 18 19 20 21 21 21 22 22 23 23 23 25 28 32 36 38 43 51 60 72 83 82 79 84 91 94 92 84 76 70 56 35 18 13 15 19 19 18 17 16 14 12 11 11 10 9 9 8 7 7 7 7 8 9 9 7 6 10 12 10 9 11 12 11 11 12 14 16 17 18 17
29 28 27 26 25 24 23 22 20 19 17 16 15 15 14 14 14 14 14 14 14 14 14 14 14 15 16 17 19 21 28 38 46 49 50 51 63 85 99 100 95 84 67 51 40 31 24 16 11 11 11 10 11 10 10 9 8 8 8 7 7 7 6 6 6 6 7 11 12 9 6 8 12 11 10 13 14 13 12 11 11 12 14 17 20
33 32 30 29 28 27 26 25 24 22 21 19 17 16 15 14 13 12 12 11 11 11 11 11 11 11 11 12 13 14 16 21 24 26 28 34 52 75 85 80 75 68 54 41 39 43 37 21 11 9 9 8 8 8 8 8 7 7 7 7 7 7 6 6 6 6 8 12 16 15 10 9 13 14 13 16 17 16 17 17 15 14 13 14 17
35 34 33 32 31 30 29 27 26 24 23 21 21 19 19 18 17 16 15 14 13 13 12 12 12 11 11 11 12 13 15 18 21 22 24 31 43 56 64 70 78 77 65 54 52 47 31 14 7 7 7 7 7 7 7 7 7 7 7 6 7 7 7 7 7 7 9 12 17 19 15 11 14 15 16 19 21 20 21 21 21 20 18 16 16
39 38 37 36 36 35 34 32 30 28 25 23 22 21 21 21 21 20 20 19 19 18 17 16 15 15 15 15 15 16 18 20 24 27 35 48 60 67 73 78 76 68 57 50 43 31 15 7 7 7 7 7 7 7 7 7 7 7 6 6 7 8 8 8 9 9 10 13 20 23 20 16 17 18 16 17 20 22 23 24 23 23 22 21 20
43 41 39 39 39 38 36 36 35 34 32 30 27 26 24 24 23 23 22 22 22 22 22 22 22 20 19 18 18 18 19 20 22 27 39 54 63 64 62 54 42 37 37 34 25 15 9 9 10 9 9 9 9 9 9 9 10 12 12 13 14 15 16 18 21 21 18 21 28 30 26 22 23 23 21 19 18 19 22 23 23 23 23 22 22
Wind_Speed
13 11 10 10 10 10 11 10 10 10 10 10 11 12 12 11 10 9 8 8 6 5 6 9 12 14 16 18 20 23 24 25 25 25 26 26 27 28 28 27 26 25 24 24 23 22 21 20 20 18 17 15 14 13 12 11 10 9 8 7 6 6 5 5 5 5 6 7 8 8 8 9 9 9 8 7 7 7 7 7 8 8 8 8 8
13 12 11 11 11 11 11 11 12 12 12 12 12 12 13 12 11 9 9 8 7 5 5 7 10 12 14 16 18 20 22 23 24 24 25 26 26 26 26 26 26 25 24 23 22 22 21 20 20 19 17 16 15 15 14 13 12 11 10 9 8 8 7 7 6 6 6 7 7 8 8 9 9 9 8 8 7 6 6 6 6 6 6 7 7
13 13 12 12 12 12 12 12 13 12 13 13 13 13 14 13 12 11 10 9 9 6 6 7 8 10 11 13 15 18 20 22 23 24 25 25 25 25 24 25 24 24 23 22 22 20 20 19 19 18 17 17 16 16 16 15 14 13 12 11 10 10 9 9 8 8 7 7 8 8 9 10 10 10 9 8 8 7 7 6 5 5 5 5 6
13 13 13 14 14 14 13 13 13 13 13 14 14 14 14 13 12 12 11 11 11 9 8 8 9 9 9 10 11 14 18 21 23 24 25 25 25 24 24 23 22 22 21 21 21 20 19 19 19 19 18 17 17 17 17 16 15 14 14 13 12 12 11 10 10 9 9 9 9 9 10 11 12 12 11 10 9 8 8 7 7 6 5 5 5
13 13 14 15 16 15 14 13 14 13 13 14 14 15 14 13 13 13 13 13 12 11 10 9 9 9 9 8 9 12 15 20 22 23 24 25 25 25 24 23 21 21 21 20 20 20 19 18 18 19 18 17 17 17 17 17 16 15 15 14 14 13 12 12 12 11 10 10 10 10 11 12 12 13 13 12 11 10 9 9 9 8 7 6 5
13 14 15 16 16 15 14 14 14 14 13 14 15 15 14 13 13 14 15 15 14 12 11 11 10 10 10 9 9 10 13 16 19 21 23 24 26 24 22 22 21 20 20 20 21 20 19 17 17 17 17 17 17 17 17 17 16 16 15 15 14 14 14 13 13 13 12 12 12 12 12 12 13 14 15 15 13 12 10 10 10 10 9 8 7
14 15 15 16 16 16 15 14 14 14 13 14 15 15 15 14 14 15 16 17 15 13 12 12 11 11 11 10 9 9 10 11 14 17 20 22 24 23 21 20 21 20 19 19 20 21 20 18 17 17 16 16 16 16 16 17 17 17 16 15 15 15 15 14 14 14 14 14 13 13 13 13 14 15 16 16 16 14 12 11 10 11 11 10 9
14 15 16 16 17 16 15 14 14 14 14 14 14 14 14 14 14 15 16 17 16 13 12 12 13 13 12 11 10 9 9 9 9 12 15 17 20 22 22 21 21 20 20 19 19 20 20 19 18 17 16 16 16 16 16 17 17 17 17 17 16 16 15 15 15 15 15 15 15 15 14 14 15 16 16 17 17 16 14 12 11 11 11 11 11
15 16 16 17 16 16 14 13 13 13 13 14 14 14 13 13 14 15 16 16 16 15 13 13 14 13 13 12 11 10 10 9 9 11 13 15 16 19 22 23 21 21 21 20 19 19 19 18 18 17 17 16 16 16 16 16 17 17 17 17 17 17 17 16 16 16 16 16 16 16 16 16 16 16 17 18 18 18 17 14 13 12 12 12 12
15 16 17 17 16 15 14 13 13 13 13 13 13 13 13 13 13 14 16 16 16 15 14 14 15 14 13 14 14 12 11 10 10 12 12 13 14 17 19 21 21 21 21 21 20 19 18 17 16 17 17 17 16 16 16 16 17 17 17 17 17 18 18 17 17 17 17 17 17 17 17 17 17 18 18 19 20 20 19 17 15 14 13 12 12
16 16 17 17 16 16 14 14 14 14 14 13 12 12 13 14 14 14 15 15 15 15 15 16 16 15 14 15 16 13 12 12 11 13 13 11 12 15 17 19 20 20 20 20 20 20 19 17 16 16 16 17 16 15 16 16 17 18 18 18 18 18 18 18 17 17 18 18 18 18 18 18 19 19 20 21 21 21 21 20 18 16 14 13 13
17 17 17 17 17 16 15 15 15 14 13 12 11 12 12 13 13 13 14 14 15 16 16 16 17 16 15 15 15 13 13 14 12 13 13 11 12 13 15 17 18 19 20 20 20 20 19 18 17 16 16 16 16 16 16 17 17 18 19 19 19 19 19 18 18 18 19 19 19 19 20 20 21 21 22 23 23 23 23 22 20 18 16 15 14
16 18 18 18 18 17 17 17 17 16 15 13 12 12 12 13 13 12 12 13 15 16 16 16 16 16 15 15 14 13 14 14 13 13 13 12 14 14 14 16 16 17 19 20 20 19 18 18 17 17 17 17 17 17 18 18 18 18 19 19 19 19 20 20 20 20 20 20 20 20 21 22 22 23 24 25 25 25 24 22 20 18 17 16 15
12 14 16 18 18 19 19 20 20 19 17 16 14 13 13 13 14 13 13 13 14 15 15 16 16 16 15 15 14 14 14 13 13 13 13 14 15 16 16 16 16 17 18 19 19 19 18 17 16 16 16 16 18 19 19 19 19 19 20 20 19 19 19 20 20 20 21 21 21 22 22 23 23 24 24 25 24 22 20 19 18 17 17 17 16
9 11 12 14 15 17 19 19 20 19 18 16 15 13 13 14 14 14 14 14 15 14 14 15 16 16 15 15 14 14 13 13 13 13 14 14 14 16 18 16 15 17 18 17 17 18 18 18 17 16 16 16 16 17 18 19 19 19 19 19 18 18 19 19 20 19 20 20 21 21 22 22 22 22 21 21 20 18 16 16 15 16 16 16 17
6 8 9 10 11 13 14 16 17 18 17 15 15 14 14 14 14 14 15 15 16 15 16 16 16 16 15 14 14 13 13 13 13 13 14 14 13 15 17 17 16 17 18 16 15 16 18 18 17 16 16 15 14 15 17 18 18 18 17 18 18 18 18 19 19 19 18 18 19 19 20 20 19 19 18 17 16 15 14 14 14 14 15 16 17
5 6 7 8 8 8 9 11 13 14 14 13 13 13 13 14 15 15 16 16 17 17 17 16 16 16 15 15 14 13 14 14 14 14 14 13 12 13 16 17 18 19 19 17 16 18 18 18 16 15 15 15 14 16 18 20 19 18 17 18 18 19 19 19 19 20 19 18 18 18 18 18 17 17 16 16 15 15 14 14 14 14 15 15 16
6 6 6 6 6 6 6 6 8 9 10 10 10 10 11 12 14 15 15 16 16 16 16 17 16 16 15 15 14 14 14 14 14 15 14 12 11 11 13 16 18 19 19 18 19 20 21 21 20 19 20 20 19 20 21 21 20 18 18 18 18 18 18 19 19 20 21 21 20 18 18 18 18 17 16 16 15 15 15 15 14 14 15 15 15
5 6 6 6 5 5 4 4 4 6 7 7 8 8 8 9 10 12 12 13 14 14 15 15 15 15 14 14 13 13 14 14 14 14 14 13 11 10 11 12 15 17 18 18 19 21 23 24 24 23 24 24 23 22 23 23 21 19 19 20 20 18 18 19 19 19 20 20 19 19 19 19 18 18 17 16 16 15 15 15 15 14 14 14 13
4 3 4 5 5 4 3 3 3 3 4 5 5 6 7 7 8 9 9 9 10 11 12 13 13 13 12 12 12 12 12 13 13 13 13 12 11 11 11 11 12 15 17 18 20 21 21 23 24 23 23 23 22 22 22 23 23 22 23 23 20 18 18 19 20 19 18 18 18 18 19 20 19 19 17 17 18 16 15 14 14 14 13 12 11
3 2 2 2 2 3 4 3 2 2 2 2 3 4 4 5 6 7 7 7 7 8 10 10 11 12 11 11 10 11 11 11 12 13 12 12 12 13 12 13 14 15 17 18 19 21 21 22 23 21 20 19 18 20 22 22 22 22 23 24 20 15 15 17 20 20 20 20 19 19 21 20 17 16 17 18 19 18 16 14 14 14 13 12 11
4 3 3 2 1 1 3 4 4 4 3 3 2 2 2 2 3 4 5 6 6 6 7 8 9 10 10 10 10 11 11 11 12 13 12 12 12 13 13 14 15 15 15 16 18 20 21 21 20 19 18 17 17 18 20 21 21 22 23 23 20 17 15 17 19 20 21 21 20 20 21 20 18 17 18 19 19 18 17 16 15 15 14 14 13
5 5 5 4 3 2 1 2 3 4 4 4 4 4 3 3 2 3 2 3 3 4 5 5 6 7 8 9 10 10 11 11 12 12 13 13 13 13 13 14 14 13 12 13 15 16 16 16 17 18 18 18 18 18 19 19 19 20 21 20 19 17 16 18 20 22 23 21 19 18 17 18 20 20 20 20 19 18 17 17 17 17 16 16 15
5 5 6 6 5 5 3 2 1 1 3 4 5 5 5 5 4 4 4 4 4 4 4 5 5 5 5 7 8 9 10 11 12 13 14 14 14 14 13 14 13 12 11 11 12 13 13 14 15 16 16 16 17 18 19 19 19 19 20 19 19 18 19 21 23 23 22 21 20 19 17 18 19 19 19 21 21 18 18 18 18 17 18 19 18
5 5 6 6 6 6 6 5 4 3 1 1 2 3 4 5 5 5 5 5 5 5 5 5 5 5 5 5 6 6 7 9 10 12 13 14 15 15 14 15 14 13 12 12 12 13 13 14 14 14 14 14 14 15 16 18 18 19 19 19 19 19 21 23 23 22 21 20 21 21 21 20 20 20 19 20 21 19 20 20 19 19 21 22 20
6 7 7 7 6 7 7 7 6 5 4 3 1 1 1 2 3 3 3 4 4 4 4 5 5 5 5 5 6 6 6 7 7 8 9 10 10 12 13 14 15 15 14 14 14 14 14 15 15 15 15 15 15 16 16 17 17 17 17 17 16 17 18 19 20 21 21 21 21 21 22 22 22 22 22 21 21 21 22 22 20 20 22 23 21
7 8 9 9 9 8 8 8 7 7 6 5 4 3 3 2 1 1 1 1 2 2 3 3 4 5 5 6 6 6 7 7 7 7 7 6 6 7 8 9 10 11 12 12 13 14 15 16 16 16 15 14 13 14 15 15 14 13 13 13 13 14 15 16 18 19 21 23 23 23 23 24 23 23 23 23 22 22 23 22 21 20 21 22 21
5 8 9 10 11 11 11 10 9 9 8 8 7 6 6 5 4 3 3 2 2 2 2 2 2 3 3 4 5 5 5 6 6 6 7 7 6 6 6 6 6 7 7 7 8 10 11 12 13 12 12 11 11 12 13 12 11 11 11 11 12 13 14 15 17 19 21 23 25 25 26 26 25 24 23 23 22 22 22 22 21 20 21 22 22
3 5 7 8 10 11 11 11 11 11 11 10 10 9 8 8 6 6 5 4 3 3 3 3 3 3 3 3 3 3 3 3 4 5 5 6 6 7 7 7 7 7 7 6 7 8 8 9 10 11 11 12 12 12 13 12 12 11 12 12 12 13 14 16 17 18 19 21 23 24 25 26 26 25 24 24 24 24 24 24 23 23 22 23 23
1 2 4 5 6 7 7 8 9 10 11 11 11 10 9 8 7 6 6 5 4 4 4 4 4 4 4 4 4 4 4 3 2 2 3 3 4 4 5 6 7 7 7 8 8 9 10 10 11 12 12 12 13 13 13 13 12 12 13 13 13 14 15 16 17 18 18 19 20 21 22 23 24 24 24 25 25 26 25 25 25 25 25 25 25
4 2 1 2 2 2 2 3 4 5 7 9 10 10 10 9 8 6 5 4 4 5 4 4 5 5 4 4 4 4 3 3 2 1 1 0 1 2 3 4 4 5 6 7 8 9 10 11 11 11 11 11 11 11 12 11 11 12 12 13 13 14 15 16 17 18 18 19 19 20 21 21 22 23 23 23 24 24 24 24 24 25 26 26 27
8 6 4 4 4 4 3 1 1 2 4 6 7 9 9 10 9 8 6 5 3 3 3 3 3 3 3 3 3 2 2 2 2 2 2 2 3 3 3 3 4 5 5 6 7 8 9 10 10 11 11 12 11 12 12 13 13 13 13 14 14 15 16 16 17 18 18 19 19 20 20 21 21 22 22 22 22 22 23 23 23 24 24 25 26
11 10 9 9 8 6 4 3 4 3 4 6 7 8 9 10 10 10 10 8 6 4 3 3 2 2 2 3 3 3 3 3 3 4 4 4 4 4 4 5 6 6 7 8 8 9 11 11 12 12 13 14 14 14 14 15 16 16 16 16 16 17 17 18 18 19 19 20 20 21 21 21 22 22 22 22 22 22 22 23 23 23 24 24 24
15 14 13 13 10 7 5 6 7 7 7 8 8 9 10 11 12 12 12 12 11 10 8 7 7 6 6 6 6 6 7 7 7 7 7 7 7 6 6 7 7 8 8 9 10 10 12 13 14 14 15 15 16 16 16 16 17 18 19 19 19 19 19 19 20 20 21 21 21 22 22 22 22 23 23 23 23 23 23 24 24 24 24 24 24
19 17 16 13 10 9 9 9 9 10 11 11 11 11 12 13 14 14 14 14 15 14 13 12 11 11 10 9 9 10 9 9 9 10 10 11 10 10 9 9 9 10 10 11 12 12 13 14 15 16 16 17 17 18 18 18 18 19 20 21 21 22 22 22 22 23 23 23 23 23 24 24 24 24 24 24 24 25 25 25 25 26 26 26 26
22 20 17 13 12 12 13 12 12 13 13 14 15 14 14 15 15 16 16 16 17 17 17 16 15 14 13 13 13 13 12 12 11 11 12 13 14 14 14 14 13 13 14 14 14 15 15 16 17 18 18 19 19 20 20 20 21 21 22 23 24 24 25 26 26 26 26 26 26 26 26 26 26 27 27 27 26 26 26 26 27 27 28 28 28
24 22 20 19 19 18 17 15 14 15 15 16 17 16 15 16 17 18 19 18 19 19 19 18 18 17 16 16 15 15 15 15 14 14 15 16 17 17 18 18 18 17 17 17 17 17 18 18 19 20 20 21 22 23 23 23 23 23 24 25 26 27 27 28 29 29 29 29 29 29 28 28 28 28 28 29 29 29 29 29 28 29 29 29 29
23 22 23 24 24 21 20 19 17 16 16 15 15 15 16 16 18 20 22 22 22 21 21 20 20 19 19 18 18 18 18 18 18 18 19 19 20 20 20 20 20 20 20 20 20 21 21 21 22 22 23 24 25 26 27 27 27 26 26 26 27 28 29 29 30 31 32 32 32 32 32 31 31 30 30 30 30 31 31 31 31 31 31 31 31
22 21 23 24 23 22 23 22 18 16 15 12 11 13 14 14 15 17 21 24 25 24 23 23 22 22 21 21 21 21 21 22 22 22 23 24 24 24 24 23 23 23 23 23 24 25 25 26 26 26 26 27 29 29 30 31 32 31 30 29 28 29 30 30 30 31 32 33 34 34 34 34 34 34 33 33 33 33 32 32 32 33 33 33 33
20 20 21 21 22 23 23 20 16 14 14 12 12 13 13 13 14 14 16 20 25 28 27 26 25 25 24 25 25 24 24 24 25 26 26 26 27 28 28 28 27 27 27 26 27 28 29 30 30 30 30 31 32 33 34 34 35 35 35 35 33 31 30 30 30 31 32 33 34 34 34 35 35 35 36 36 36 36 36 35 35 34 34 35 35
15 16 16 16 17 18 18 15 12 12 12 13 14 15 14 14 15 15 16 16 19 25 28 30 29 28 28 28 28 27 26 26 27 28 28 28 28 29 29 30 31 31 30 30 30 30 31 32 33 33 34 34 36 36 37 38 38 37 37 38 37 35 34 31 30 31 32 33 34 34 34 35 35 35 36 37 37 38 39 38 38 38 37 37 37
11 11 11 12 13 13 13 12 12 12 13 14 15 16 16 17 17 18 19 18 17 19 23 27 30 32 32 32 31 30 30 30 30 29 29 30 31 31 31 31 32 33 34 34 33 32 32 33 35 36 36 37 38 39 40 40 40 40 39 39 38 38 38 36 32 31 33 34 35 34 33 34 36 35 35 36 36 37 39 39 39 40 39 39 40
12 13 13 14 14 13 13 14 15 16 16 17 17 18 19 20 21 21 22 22 21 20 21 23 26 29 32 33 33 33 34 34 33 31 29 30 32 33 34 34 34 36 37 37 37 36 35 35 36 38 40 40 40 41 42 42 41 41 40 41 40 40 40 40 37 35 34 36 38 37 34 33 36 36 35 35 36 37 38 39 39 39 40 40 41
15 16 16 16 16 17 17 18 19 19 20 20 21 22 22 24 25 26 26 25 25 25 25 26 26 28 30 33 34 35 35 35 34 31 29 30 33 35 36 36 36 37 38 39 39 38 37 36 37 38 41 42 42 42 43 43 43 42 42 42 42 42 41 41 41 40 38 38 41 41 37 35 36 37 36 35 37 38 38 38 38 38 39 40 41
17 17 17 18 19 20 20 21 21 22 23 23 24 24 25 26 27 28 28 28 28 29 29 30 30 31 32 33 34 36 35 34 34 32 30 31 34 34 34 36 37 38 38 39 39 39 38 37 37 38 40 42 42 43 43 44 44 44 44 44 44 44 44 44 44 43 41 41 43 45 42 37 37 40 39 36 37 39 40 39 39 39 39 39 40
18 18 19 19 20 20 20 21 22 22 23 23 24 25 25 26 27 28 28 29 29 30 31 31 32 32 33 33 34 35 35 35 35 34 33 33 33 31 31 35 38 39 40 40 40 40 39 38 38 38 40 41 42 43 44 45 46 46 46 46 46 46 47 46 46 45 43 42 45 48 47 41 37 41 41 39 39 40 41 41 41 41 41 41 40
20 20 20 20 20 21 21 21 21 22 22 22 23 24 25 25 27 27 28 28 29 29 30 30 31 32 33 33 33 33 34 35 36 36 36 36 34 32 33 38 40 41 42 42 41 40 40 40 40 40 41 42 43 45 45 46 47 48 48 48 48 49 49 48 48 47 46 44 45 48 50 46 42 43 43 41 40 41 41 42 42 42 42 42 41
23 23 22 22 22 22 22 22 22 22 22 23 23 24 24 25 26 26 27 27 28 28 29 29 29 30 31 32 33 33 33 33 34 35 35 36 36 36 38 40 40 42 44 43 41 41 41 42 42 42 42 43 44 46 47 47 48 49 49 50 50 50 51 51 50 49 48 46 45 48 51 50 48 47 46 44 42 42 41 41 42 43 44 43 43
24 23 23 23 22 23 23 24 24 24 24 24 24 24 25 25 26 26 27 27 28 29 29 29 29 30 30 31 32 33 33 34 34 34 35 35 37 37 38 39 40 42 44 44 42 43 43 44 43 43 43 44 45 46 47 48 49 50 50 51 51 51 51 52 52 50 49 48 47 47 50 51 51 51 50 47 45 44 43 42 42 43 44 44 44
24 24 23 23 23 23 24 24 25 26 26 27 27 27 27 27 27 27 27 28 28 29 29 29 29 30 30 31 32 32 33 34 34 35 35 36 37 38 39 41 42 44 44 44 44 45 45 45 45 44 45 45 46 47 47 48 49 50 50 51 51 51 51 51 52 51 50 49 47 47 49 50 51 52 53 52 49 47 45 43 43 43 43 44 44
26 26 25 25 24 25 25 26 26 27 28 29 30 30 30 30 30 30 30 30 31 30 30 30 30 30 30 31 31 32 32 33 34 35 36 38 39 41 42 44 44 43 43 44 45 46 46 46 46 46 47 47 47 47 47 47 47 47 48 49 49 50 51 51 51 52 51 50 47 47 49 50 50 51 53 54 53 50 47 46 45 44 43 43 44
Wind_Direction
257 260 257 251 244 231 224 226 228 230 230 233 242 246 244 241 241 240 241 242 223 199 205 215 220 227 234 239 243 245 244 243 241 239 239 238 236 235 236 237 239 240 240 242 243 245 247 248 249 249 249 249 250 252 253 253 253 254 255 257 257 254 249 250 261 281 299 313 325 338 346 350 355 357 355 352 352 4 19 28 33 38 42 43 43
257 255 250 244 235 226 225 225 224 224 225 227 232 238 240 236 235 237 240 247 237 209 201 211 215 220 228 235 242 246 246 243 241 239 239 239 238 236 236 236 238 240 241 241 242 243 244 246 248 248 248 248 248 249 251 251 251 251 250 250 250 248 243 239 241 255 275 292 306 317 326 332 338 343 346 345 339 336 344 0 14 21 28 35 39
253 249 244 236 232 231 227 223 224 225 225 225 225 230 235 234 234 237 240 247 249 237 221 221 222 221 223 231 241 248 250 248 242 239 239 240 240 239 237 236 237 238 240 241 240 241 243 245 247 248 248 249 249 250 251 250 250 251 249 249 248 247 244 238 235 240 252 269 285 297 307 315 321 327 332 335 333 327 320 323 338 354 5 13 24
249 244 239 235 238 241 232 223 224 227 228 227 226 228 233 237 241 244 247 250 254 252 239 233 234 235 232 232 239 246 250 251 248 243 241 240 240 240 240 238 237 238 240 241 240 239 240 242 244 247 247 247 248 248 249 248 248 247 247 247 246 244 243 239 236 235 242 253 267 281 293 302 309 315 320 326 329 326 319 312 309 315 330 344 355
248 243 239 238 242 246 241 233 230 227 227 228 228 230 234 240 246 251 253 256 258 258 253 248 245 244 245 244 247 250 249 250 249 246 243 242 241 240 241 241 237 237 240 242 242 240 237 237 240 243 244 244 244 244 245 245 243 242 242 242 243 242 240 239 236 234 237 245 256 268 280 291 299 307 312 317 322 323 320 314 306 299 299 310 323
249 245 243 242 243 245 245 244 242 236 231 231 230 230 234 241 248 254 257 259 259 260 261 260 253 249 251 250 251 256 255 252 251 249 246 243 242 240 239 241 238 233 236 240 241 241 238 235 236 239 241 240 239 239 240 240 239 237 237 237 239 240 239 237 237 235 237 241 248 258 269 280 290 299 305 310 314 316 317 313 309 300 291 290 296
249 248 247 246 246 247 249 250 249 244 238 237 236 233 234 241 248 253 257 259 259 259 261 263 261 257 259 258 256 260 263 261 257 253 250 246 246 242 236 240 240 232 231 234 237 239 238 236 234 235 237 237 235 235 235 235 235 235 235 234 234 237 239 238 237 238 240 242 246 252 261 271 281 290 297 302 306 309 310 308 307 304 296 286 284
253 252 250 250 251 253 256 255 251 247 245 246 246 242 237 238 246 250 253 255 257 257 259 265 267 265 266 266 265 267 268 268 265 259 255 252 250 246 240 239 240 235 230 229 232 235 236 235 233 232 233 234 233 232 232 232 233 234 234 234 233 235 237 238 238 239 242 244 247 251 257 265 273 281 289 295 299 302 304 303 301 300 298 290 282
256 255 254 254 256 258 260 260 256 251 249 251 253 248 240 239 243 247 250 253 256 257 258 265 267 266 268 271 271 273 272 269 267 263 257 253 251 248 243 239 239 237 233 229 228 230 232 234 234 233 233 233 233 233 232 232 233 234 235 234 233 234 236 237 238 240 243 245 248 251 256 261 268 275 282 289 294 297 299 299 296 294 294 292 286
260 257 256 258 260 261 264 265 263 258 254 254 254 250 246 244 243 245 250 253 256 259 261 264 266 266 266 270 274 276 277 272 268 264 255 249 249 247 243 239 237 238 236 233 231 230 230 230 233 235 235 235 234 235 237 237 236 235 235 236 236 236 237 238 239 241 243 245 248 251 255 259 265 271 277 284 289 293 295 295 293 290 288 288 286
263 262 261 261 262 264 268 269 267 263 262 260 258 255 253 249 243 243 247 252 257 262 266 265 266 266 264 268 273 277 279 279 276 270 258 245 246 248 244 240 238 239 238 235 234 235 234 231 231 235 238 238 237 238 240 242 242 240 237 236 237 238 238 239 240 243 245 247 249 251 255 260 264 269 275 281 285 289 292 292 290 286 283 281 281
263 264 265 264 264 266 268 268 266 265 266 266 262 260 259 255 249 246 247 252 259 263 266 266 265 264 263 266 270 272 278 281 280 273 263 246 242 247 247 242 238 236 237 235 233 235 236 234 233 235 238 240 241 242 243 244 245 245 242 239 238 239 240 241 241 244 247 250 253 255 258 262 266 271 275 279 282 286 288 289 286 283 281 278 277
260 260 262 264 266 267 268 267 267 266 268 269 267 263 261 259 256 254 253 255 261 264 265 265 264 262 260 262 264 266 273 278 278 271 262 250 241 239 243 242 237 234 235 237 236 236 237 237 237 237 238 240 241 243 245 245 245 247 247 243 241 242 243 244 245 246 249 253 256 259 262 265 268 271 275 278 280 283 285 285 282 278 277 277 276
264 260 258 260 263 265 267 269 270 271 272 272 270 266 262 259 257 257 257 257 260 264 264 263 263 261 258 258 260 262 267 272 276 273 265 257 247 239 240 238 235 235 234 234 236 239 240 239 238 237 235 236 238 240 242 243 245 248 251 250 247 246 248 249 249 250 252 255 257 260 263 266 269 272 275 277 280 282 283 281 278 274 274 274 275
278 273 267 264 264 265 268 270 271 272 273 272 268 262 257 255 253 253 254 254 255 257 258 258 259 259 257 255 255 257 261 265 272 277 274 268 256 245 244 242 239 243 243 237 233 235 238 236 234 234 232 229 229 233 236 240 242 245 249 252 250 249 250 251 253 254 255 256 258 261 265 268 271 273 274 276 279 282 282 280 277 273 272 272 274
280 278 275 271 268 267 269 271 272 272 271 269 266 260 254 249 247 246 248 249 249 248 250 253 254 255 254 251 252 253 257 261 265 271 274 275 266 251 246 245 247 251 253 250 240 236 238 237 233 235 237 232 226 227 230 233 237 241 244 247 248 248 248 250 252 253 253 255 257 261 265 269 271 272 273 274 276 278 280 279 276 273 271 271 272
277 269 268 270 271 270 272 273 275 274 271 267 262 257 252 248 244 243 243 243 244 244 246 248 249 249 250 250 251 253 255 257 261 263 266 272 273 259 246 242 247 252 253 252 248 241 241 242 239 240 248 249 240 237 236 232 229 231 237 240 241 241 242 246 249 250 248 247 250 253 258 263 265 265 265 268 270 273 275 276 275 273 271 270 270
288 271 262 262 265 268 274 279 280 277 271 265 258 255 253 250 247 244 243 242 242 242 242 243 243 246 250 252 252 252 253 254 256 257 259 266 271 267 253 241 244 253 255 254 252 246 244 246 243 238 246 253 253 251 250 248 240 231 230 233 235 238 239 239 241 245 247 246 245 247 251 255 258 259 260 262 265 269 272 274 276 275 273 272 271
311 281 264 258 259 265 274 280 285 281 272 265 259 255 251 249 249 248 247 246 244 242 241 240 241 244 248 251 251 251 251 251 251 251 256 264 270 273 268 253 248 251 254 256 254 248 245 248 247 241 240 243 247 252 254 258 259 253 248 243 240 239 241 243 241 242 246 249 247 245 246 248 251 254 256 259 262 266 271 275 278 278 275 273 272
338 302 274 262 255 257 262 267 273 277 273 265 257 250 244 243 246 248 248 249 247 242 239 238 239 241 244 245 245 245 248 247 245 247 254 264 273 280 282 275 263 255 253 255 255 254 252 254 257 253 246 242 241 245 252 255 257 259 258 253 244 235 235 244 250 250 250 253 253 252 251 248 246 248 254 258 260 263 269 274 278 278 276 273 271
4 354 334 297 258 245 240 239 240 239 248 250 250 251 245 245 247 247 248 249 250 248 243 239 237 239 243 244 241 240 244 245 242 243 249 259 269 277 281 279 271 262 259 259 261 264 266 266 265 259 256 254 248 249 258 260 256 255 254 253 256 255 247 248 250 252 253 253 253 253 254 254 255 256 256 256 256 257 259 261 267 272 274 274 271
31 33 35 40 45 233 227 222 217 212 210 205 205 220 225 237 245 247 249 248 249 251 250 247 242 241 243 242 240 240 241 243 241 240 243 249 256 262 267 271 271 268 266 265 265 268 270 273 274 273 273 272 268 264 267 267 260 254 251 252 259 262 257 255 253 253 254 253 251 250 254 260 265 264 259 257 255 255 257 258 261 266 269 269 266
43 47 49 53 61 72 150 201 204 204 204 202 199 196 191 190 199 209 222 229 229 230 235 238 239 241 242 240 238 236 236 236 236 237 239 241 244 247 249 255 260 262 265 265 263 263 266 271 275 277 277 276 276 276 275 275 271 265 262 263 262 256 255 259 259 258 258 258 261 264 265 265 263 262 263 264 261 257 259 258 259 263 265 267 265
48 50 54 54 57 61 60 66 96 168 192 200 203 203 203 201 195 189 185 182 184 190 198 205 210 217 224 227 226 224 227 231 233 234 237 239 242 244 241 243 249 253 258 260 260 261 264 268 271 273 276 276 276 277 278 281 281 279 277 276 271 266 264 263 261 262 263 264 270 275 273 269 269 268 267 267 266 264 263 262 263 264 264 266 266
55 55 53 53 57 60 58 55 55 59 85 152 191 200 205 209 206 203 197 192 188 184 187 190 192 198 201 203 204 205 213 221 228 233 237 241 244 246 244 245 248 251 255 257 258 262 265 267 271 276 282 284 283 282 282 284 285 284 285 283 281 277 273 269 266 268 271 270 272 274 272 271 272 272 269 268 269 268 266 266 266 265 263 264 266
62 61 57 55 55 58 57 54 53 51 52 60 72 125 175 194 201 203 202 201 201 200 200 200 201 204 203 200 196 195 195 198 207 217 225 233 239 243 245 246 248 250 251 252 253 257 262 267 273 279 284 289 291 291 289 289 288 288 287 284 283 281 279 275 271 270 271 269 268 269 272 272 272 271 271 270 270 268 267 266 264 263 263 265 266
61 61 58 55 51 49 48 45 45 45 44 47 48 51 53 54 70 103 155 169 184 195 200 202 206 209 208 208 207 205 199 194 196 200 204 209 213 222 232 238 244 247 248 249 250 254 259 266 274 279 283 286 290 293 293 293 293 291 289 284 280 279 278 276 273 269 266 264 263 263 266 270 271 271 271 270 270 268 267 266 263 261 262 265 266
58 60 56 53 48 43 39 35 34 33 34 36 35 37 38 34 37 39 42 52 61 81 103 127 158 172 182 193 200 205 207 204 206 211 214 215 214 215 221 226 234 242 247 249 253 257 261 267 273 278 282 284 285 286 287 288 291 292 290 285 279 276 273 273 272 270 267 264 264 264 266 269 270 270 270 269 269 268 268 267 264 261 261 264 267
36 50 52 50 46 40 33 28 25 23 23 24 22 24 28 28 30 34 34 32 32 45 59 72 89 105 116 128 140 150 163 180 194 208 216 224 229 229 231 234 235 239 245 250 254 257 259 264 270 273 275 277 277 276 275 276 280 283 282 279 275 271 269 267 268 270 270 268 266 266 268 270 272 272 272 271 270 270 270 268 266 263 262 262 264
313 25 38 40 41 36 31 23 20 17 13 11 9 8 11 15 22 29 34 37 37 39 44 54 65 71 80 92 98 104 109 116 134 164 188 201 213 220 228 235 240 241 243 247 251 254 256 259 263 266 267 267 269 270 270 272 275 277 277 276 274 272 270 270 270 271 272 272 271 271 272 273 274 275 274 274 273 273 272 270 268 266 264 263 263
257 270 338 0 8 4 8 9 10 10 3 357 352 348 348 351 357 7 16 28 39 43 42 48 56 58 61 67 67 62 59 57 50 41 26 260 230 226 228 233 240 242 242 245 249 253 256 257 259 262 264 264 266 268 271 273 275 274 274 273 273 273 272 271 271 272 272 273 274 274 274 275 275 276 275 274 274 274 273 272 269 267 265 264 263
242 239 238 237 240 249 253 273 328 343 338 333 331 328 326 325 326 329 333 343 1 17 25 33 42 47 42 45 50 41 25 12 353 335 324 314 302 291 278 266 259 255 251 251 254 257 260 261 262 264 268 270 272 276 279 282 282 281 280 278 277 276 274 274 273 272 272 273 273 274 274 275 275 276 277 276 275 274 273 271 270 269 268 266 265
231 230 231 233 231 237 260 285 292 303 312 310 305 302 299 297 298 299 301 303 302 303 303 305 312 314 307 304 309 312 307 304 302 297 290 282 275 272 269 266 264 261 260 260 260 264 267 270 272 274 276 279 280 283 285 286 287 288 288 286 285 282 281 279 278 277 277 276 276 275 275 275 276 276 277 276 276 274 273 271 270 269 269 268 268
223 225 231 236 235 239 262 282 289 293 299 299 291 284 281 281 281 281 282 283 283 283 282 278 275 273 272 271 275 282 287 290 289 287 284 276 267 261 257 257 257 257 259 261 262 263 266 270 273 276 278 280 281 283 284 284 285 287 289 289 288 288 287 286 285 284 282 280 279 278 276 275 274 273 273 273 274 274 273 272 272 271 270 269 268
226 225 228 235 247 263 272 277 283 282 282 281 277 275 274 274 274 274 274 274 274 274 273 272 270 267 266 265 268 272 275 277 277 276 275 272 267 264 262 263 263 261 259 260 260 262 264 267 270 273 274 276 278 279 281 282 282 283 285 286 288 288 288 288 287 287 286 285 283 282 281 280 278 277 275 274 274 273 273 273 273 272 271 271 269
230 231 231 237 248 260 268 272 276 275 271 266 262 263 265 264 264 266 268 270 272 271 267 264 264 263 264 264 267 270 272 272 272 270 268 266 264 263 265 268 268 266 263 260 260 259 260 262 265 269 272 273 275 277 277 279 280 280 280 280 281 282 284 284 284 284 284 285 285 284 283 282 282 281 280 279 277 276 274 272 271 270 270 270 270
234 239 245 251 255 259 260 260 262 265 266 262 257 252 254 259 259 257 258 262 266 267 263 258 257 259 262 263 264 267 271 272 273 273 272 269 266 264 265 267 268 268 266 264 263 263 261 259 260 265 269 272 274 275 274 273 273 275 276 277 277 275 275 276 277 277 277 278 279 280 280 280 280 280 280 279 278 277 276 274 272 271 270 269 269
245 250 253 255 260 266 265 260 257 259 264 270 267 255 251 255 257 255 253 253 255 258 258 256 255 257 261 264 265 265 267 269 271 274 275 274 271 269 268 268 268 269 269 269 269 268 268 266 265 265 268 271 273 274 275 275 273 272 273 275 277 277 275 274 273 273 273 273 273 273 274 275 276 277 277 276 276 276 275 274 273 272 271 270 269
253 259 260 261 264 264 264 264 265 267 271 276 268 254 249 251 255 258 257 253 249 248 250 251 251 253 257 262 265 266 266 268 269 272 275 276 275 273 271 269 269 270 271 273 274 274 273 272 271 270 270 272 274 275 277 279 280 279 278 276 275 275 276 276 275 273 273 273 272 271 271 271 271 272 272 273 274 274 273 273 272 271 270 269 268
257 261 263 265 263 261 263 268 275 279 279 273 258 249 248 250 254 264 268 262 251 244 242 243 245 249 253 258 262 265 266 268 269 271 273 273 274 274 274 274 273 272 272 272 273 276 277 277 277 276 276 276 278 278 280 281 282 283 283 282 280 278 276 275 275 274 273 273 273 272 272 271 270 270 270 270 270 270 271 271 271 270 270 269 268
256 259 262 260 256 257 263 268 273 276 275 269 259 255 253 253 255 260 267 269 259 247 242 240 243 246 249 254 259 261 262 265 269 271 272 272 272 272 274 275 275 276 275 274 273 274 277 278 279 279 279 279 280 280 281 282 282 283 283 284 284 282 280 277 275 275 273 272 271 271 272 273 272 271 270 269 269 269 269 269 269 269 268 268 268
249 255 259 258 255 256 262 267 268 268 267 263 259 256 255 256 258 258 261 264 261 253 247 244 246 249 249 251 255 258 260 264 268 271 272 274 274 273 273 275 277 278 277 276 275 276 278 280 280 280 280 280 280 281 281 282 283 284 284 284 284 284 283 281 280 279 278 276 274 272 272 273 273 272 271 270 269 268 268 268 268 268 268 268 268
244 246 250 255 257 259 263 266 267 266 265 263 260 258 257 257 257 258 260 260 259 256 252 250 250 251 251 251 254 256 260 264 267 269 272 274 275 276 276 278 279 280 280 279 279 279 280 280 281 282 282 282 282 283 284 284 285 286 286 286 286 286 286 285 285 284 283 282 280 278 276 274 274 273 272 272 272 271 270 269 268 267 267 267 267
250 253 255 257 258 259 259 260 262 262 262 261 260 260 259 260 260 259 258 258 258 257 255 253 252 251 251 252 254 257 261 265 267 270 273 276 276 277 280 281 282 281 281 282 282 282 281 279 279 280 281 282 284 284 285 287 287 288 288 288 288 288 288 287 287 287 286 285 284 282 280 278 277 276 274 273 273 272 271 271 271 269 268 267 266
258 259 260 261 262 263 264 264 264 264 262 261 260 260 259 260 261 261 260 258 258 257 257 257 256 255 255 255 257 260 263 267 270 272 273 273 274 277 281 283 282 280 280 281 283 285 284 281 279 279 280 281 283 284 285 286 287 287 288 288 288 288 287 287 286 286 286 286 285 284 282 280 279 279 278 275 273 272 271 271 271 271 270 270 269
256 257 258 259 260 261 262 263 264 264 265 264 264 263 262 261 261 261 261 260 260 259 259 259 259 260 260 261 261 262 262 264 268 270 271 271 272 275 276 277 279 280 282 283 285 286 285 283 281 281 281 281 282 283 284 285 286 286 286 286 286 286 286 286 286 287 287 286 285 284 283 282 281 279 279 277 275 274 273 272 271 270 269 269 269
254 256 257 258 259 260 260 260 261 261 262 263 264 265 264 264 264 264 263 262 261 261 260 260 261 262 263 264 265 265 264 265 266 268 270 272 273 272 270 272 277 281 282 283 284 285 285 284 284 283 283 283 283 283 283 284 284 285 285 286 286 286 285 285 286 287 288 287 287 285 285 285 284 281 280 279 277 276 275 274 273 271 270 268 267
254 256 258 259 261 262 263 264 264 264 263 262 263 264 264 264 265 266 267 266 265 264 263 262 262 262 263 265 266 267 267 267 268 269 271 272 272 271 272 274 277 279 280 281 283 285 286 286 285 284 284 284 284 283 284 284 284 284 284 285 286 286 285 285 285 286 286 286 287 286 286 286 286 284 282 281 280 278 276 274 273 273 272 271 269
257 258 259 261 262 264 264 266 266 267 267 266 265 264 263 263 264 264 265 266 267 268 268 267 266 265 265 265 266 267 268 269 269 269 269 269 269 270 272 275 275 276 279 284 286 287 287 287 286 285 285 285 284 284 284 284 285 285 285 285 286 285 285 285 284 284 284 284 284 285 284 284 285 284 283 282 281 280 278 276 274 272 271 271 270
256 258 259 261 262 263 264 265 265 266 266 267 267 266 265 264 264 263 264 265 266 267 268 269 270 270 269 269 268 269 269 269 269 268 268 269 269 270 271 273 274 278 282 286 287 287 288 288 289 289 288 287 287 286 286 286 286 286 286 286 286 286 286 286 285 285 284 284 284 284 282 282 282 283 282 282 281 280 280 278 276 273 272 271 270
254 256 259 262 264 265 265 265 265 265 264 265 265 266 267 267 267 266 266 267 268 268 269 270 271 271 271 271 270 270 270 269 269 268 268 268 269 270 272 274 277 281 283 284 284 286 287 289 291 291 290 290 290 289 288 288 287 287 287 286 286 286 286 286 286 286 285 284 285 284 282 281 281 281 281 281 281 280 279 279 277 276 274 272 271